DELTA 1 DEB, 21444

Orbit data source: Space-Track

DELTA 1 DEB, 21444 is space debris in SSO originally from a launch on Thu, 12 Jun 1975 UTC launched from the Air Force Western Test Range (AFWTR). Debris objects in space refer to the collection of defunct objects orbiting the Earth. Examples of debris include non-operational satellites, rocket bodies, and fragments generated from explosions, collisions, or faulty payload assembly.

Loading next visibility...
Identifier
21444, 1975-052EC
Orbit
SSO
Country
Flag of USUS
Related business
Manufacturer
Unknown
Mission
Spacecraft
Bus & Motor
Unknown
Mass
Unknown
Launch date (UTC)
1975-06-12 (51 years ago)
Launch vehicle
Unknown
Launch site
Air Force Western Test Range (AFWTR)
Object type
Payload
Rocket body
Debris
Shape & HBR
Unknown shape, 0.1 m
Radar Cross Section
Small (<0.1 m²)

Expand to show TLE details & history
Last TLE update: 9 hours ago

TLE from 9 hours ago
0 DELTA 1 DEB
1 21444U 75052EC  26124.72238134  .00000201  00000-0  72296-3 0  9991
2 21444  99.6987  42.6587 0264305 154.4719 237.3580 12.94897930651268
Epoch: 2026-05-04T17:20Z
TLE epoch observation values (Epoch: 2026-05-04T17:20:13.747Z)
Latitude
28.90963°
Longitude
-85.39521°
Altitude
1,398.502 km
Speed
7.11 km/s
True Right ascension
02h 29m 04s
True Declination
28° 46' 35"
Sunlit
Object was in daylight at epoch
Visualization orbit readout
Latitude
Unknown
Longitude
Unknown
Altitude
Unknown
Speed
Unknown
Apparent Right ascension
Unknown
Apparent Declination
Unknown
Sunlit
N/A
Visualization observer readout
Local Sidereal Time
10:35:48
Azimuth
Unknown
Elevation
Unknown
Doppler factor
Unknown
Orbital elements
Apogee altitude
1,481.914 km
Perigee altitude
1,077.123 km
Semi-major axis
7,657.656 km
Eccentricity
0.02643
Inclination
99.6987°
RAAN
42.6587°
Arg. of periapsis
154.4719°
True anomaly
234.85313°
Mean anomaly
237.358°
Eccentric anomaly
236.10105°
Mean motion
3.23891 °/min
Orbital period
111.15 mins
BSTAR
0.00072296
Loading maneuver chart data...
Computing Atmospheric mass density...

Documentation

Showing up to 5 results
|